Retour au catalogue

DELTA 1 DEB

ActifSSO
NORAD 7066·DEBRIS·🇺🇸 United States

Lancé Nov 6, 1973 depuis Vandenberg Space Force Base

Loading…

Prochains Passages (prochaines 24 heures)

TLE

FraisSource: Space-Track

Époque: Sep 14, 2026, 08:47 UTC

1 07066U 73086BJ  26257.36598554  .00000353  00000-0  29351-2 0  9993
2 07066 101.8239 209.1275 0056348 358.4551 154.3932 12.40518875385552

Suivez DELTA 1 DEB en temps réel avec AllMySat

Download on the App Store